Weather History for Falls City, NE

Change the Weather History Date:

Thursday, March 7, 2013

  Actual Average Record
Temperature  
Mean Temperature 38 °F -  
Max Temperature 52 °F 51 °F 96 °F (1964)
Min Temperature 23 °F 26 °F 4 °F (1982)
Degree Days  
Heating Degree Days 28    
Moisture  
Dew Point 23 °F    
Average Humidity 64    
Maximum Humidity 81    
Minimum Humidity 35    
Precipitation  
Precipitation 0.00 in - - ()
Sea Level Pressure  
Sea Level Pressure 30.22 in    
Wind  
Wind Speed 10 mph (ESE)    
Max Wind Speed 18 mph    
Max Gust Speed 23 mph    
Visibility 10 miles    
Events      
Averages and records for this station are not official NWS values.
T = Trace of Precipitation, MM = Missing Value Source: NWS Daily Summary

Daily Weather History Graph

Daily Weather History Graph

Search for Another Location

Airport:

Trip Planner

Search our weather history database for the weather conditions in past years. The results will help you decide how hot, cold, wet, or windy it might be!

Date:

Astronomy

Mar. 07, 2013 Rise Set
Actual Time 6:46 AM CST 6:21 PM CST
Civil Twilight 6:19 AM CST 6:48 PM CST
Nautical Twilight 5:47 AM CST 7:19 PM CST
Astronomical Twilight 5:16 AM CST 7:51 PM CST
Moon 3:46 AM CST (3/7) 2:09 PM CST (3/7)
Length of Visible Light 12h 29m
Length of Day
11h 34m
Waning Crescent, 20% of the Moon is Illuminated
Mar 7
Waning Crescent
Mar 11
New
Mar 19
First Quarter
Mar 27
Full
Apr 2
Last Quarter

Hourly Weather History & Observations

Time (CST) Temp. Windchill Dew Point Humidity Pressure Visibility Wind Dir Wind Speed Gust Speed Precip Events Conditions
12:53 AM 25.0 °F 16.3 °F 19.0 °F 78% 30.30 in 10.0 mi SE 8.1 mph - N/A   Clear
1:53 AM 24.1 °F 18.2 °F 19.0 °F 81% 30.31 in 10.0 mi ESE 4.6 mph - N/A   Clear
2:53 AM 24.1 °F 15.2 °F 19.0 °F 81% 30.27 in 10.0 mi SE 8.1 mph - N/A   Clear
3:53 AM 23.0 °F 15.8 °F 18.0 °F 81% 30.28 in 10.0 mi ESE 5.8 mph - N/A   Clear
4:53 AM 23.0 °F 14.7 °F 18.0 °F 81% 30.28 in 10.0 mi ESE 6.9 mph - N/A   Clear
5:53 AM 23.0 °F 13.9 °F 18.0 °F 81% 30.27 in 10.0 mi ESE 8.1 mph - N/A   Clear
6:53 AM 23.0 °F 12.4 °F 18.0 °F 81% 30.29 in 10.0 mi ESE 10.4 mph - N/A   Clear
7:53 AM 26.1 °F 16.2 °F 19.9 °F 78% 30.29 in 10.0 mi ESE 10.4 mph - N/A   Clear
8:53 AM 30.2 °F 19.3 °F 21.2 °F 69% 30.25 in 10.0 mi ESE 15.0 mph - N/A   Clear
9:53 AM 35.1 °F 26.4 °F 24.1 °F 64% 30.28 in 10.0 mi ESE 12.7 mph - N/A   Clear
10:53 AM 41.0 °F 32.8 °F 25.0 °F 53% 30.25 in 10.0 mi ESE 16.1 mph - N/A   Clear
11:53 AM 46.0 °F 39.3 °F 25.0 °F 44% 30.23 in 10.0 mi SE 16.1 mph 23.0 mph N/A   Clear
12:53 PM 48.9 °F - 26.1 °F 41% 30.20 in 10.0 mi SE 15.0 mph 23.0 mph N/A   Clear
1:53 PM 52.0 °F - 26.1 °F 37% 30.15 in 10.0 mi SE 15.0 mph 23.0 mph N/A   Clear
2:53 PM 52.0 °F - 25.0 °F 35% 30.13 in 10.0 mi SE 18.4 mph - N/A   Clear
3:53 PM 52.0 °F - 26.1 °F 37% 30.13 in 10.0 mi SE 16.1 mph 23.0 mph N/A   Clear
4:53 PM 50.0 °F - 27.0 °F 41% 30.14 in 10.0 mi SE 13.8 mph - N/A   Clear
5:53 PM 44.1 °F 37.7 °F 27.0 °F 51% 30.16 in 10.0 mi ESE 12.7 mph - N/A   Clear
6:53 PM 39.9 °F 33.4 °F 27.0 °F 60% 30.17 in 10.0 mi East 10.4 mph - N/A   Clear
7:53 PM 37.0 °F 28.9 °F 27.0 °F 67% 30.18 in 10.0 mi ESE 12.7 mph - N/A   Clear
8:53 PM 33.1 °F 26.1 °F 26.1 °F 75% 30.19 in 10.0 mi East 8.1 mph - N/A   Clear
9:53 PM 33.1 °F 26.1 °F 26.1 °F 75% 30.20 in 10.0 mi ESE 8.1 mph - N/A   Clear
10:53 PM 32.0 °F 26.4 °F 25.0 °F 75% 30.20 in 10.0 mi SE 5.8 mph - N/A   Clear
11:53 PM 32.0 °F 27.5 °F 25.0 °F 75% 30.21 in 10.0 mi East 4.6 mph - N/A   Clear